TimeADT,TemperatureF,Dew PointF,Humidity,Sea Level PressureIn,VisibilityMPH,Wind Direction,Wind SpeedMPH,Gust SpeedMPH,PrecipitationIn,Events,Conditions,WindDirDegrees,DateUTC
12:00 AM,24.8,23.0,93,29.67,15.0,West,8.1,-,N/A,,Scattered Clouds,270,2013-03-25 03:00:00
12:18 AM,24.8,23.0,93,29.66,10.0,West,8.1,-,N/A,Snow,Light Snow Showers,270,2013-03-25 03:18:00
12:40 AM,26.6,23.0,86,29.66,4.0,West,8.1,-,N/A,Snow,Light Snow Showers,280,2013-03-25 03:40:00
1:00 AM,26.6,24.8,93,29.65,6.0,West,8.1,-,N/A,Snow,Light Snow Showers,280,2013-03-25 04:00:00
2:00 AM,30.2,28.4,93,29.65,8.0,NW,9.2,-,N/A,Snow,Light Snow Showers,320,2013-03-25 05:00:00
3:00 AM,31,31,100,29.65,15,NNW,9.2,,,Snow,Light Snow Showers,330,2013-03-25 06:00:00
3:00 AM,32.0,30.2,93,29.65,15.0,NNW,9.2,-,N/A,,Mostly Cloudy,340,2013-03-25 06:00:00
4:00 AM,30.2,30.2,100,29.65,12.0,NNW,8.1,-,N/A,Snow,Light Snow Showers,340,2013-03-25 07:00:00
5:00 AM,30.2,30.2,100,29.65,15.0,NNW,9.2,-,N/A,Snow,Light Snow Showers,340,2013-03-25 08:00:00
5:39 AM,30.2,28.4,93,29.65,15.0,NNW,8.1,-,N/A,,Overcast,330,2013-03-25 08:39:00
6:00 AM,30.2,28.4,93,29.65,15.0,NNW,9.2,-,N/A,,Overcast,330,2013-03-25 09:00:00
7:00 AM,30.2,28.4,93,29.65,15.0,NNW,12.7,19.6,N/A,,Overcast,340,2013-03-25 10:00:00
8:00 AM,30.2,28.4,93,29.66,15.0,NW,9.2,-,N/A,,Overcast,320,2013-03-25 11:00:00
9:00 AM,31,29,87,29.67,15,NNW,9.2,,,,Partly Cloudy,330,2013-03-25 12:00:00
9:00 AM,30.2,28.4,93,29.67,15.0,NNW,9.2,-,N/A,,Overcast,330,2013-03-25 12:00:00
9:33 AM,30.2,28.4,93,29.67,12.0,NNW,15.0,21.9,N/A,Snow,Light Snow Showers,330,2013-03-25 12:33:00
9:49 AM,30.2,28.4,93,29.67,2.0,NNW,12.7,18.4,N/A,Snow,Light Snow Showers,330,2013-03-25 12:49:00
10:00 AM,30.2,28.4,93,29.67,1.5,NNW,11.5,18.4,N/A,Snow,Light Snow Showers,330,2013-03-25 13:00:00
11:00 AM,32.0,28.4,87,29.67,2.0,NNW,12.7,19.6,N/A,Snow,Light Snow Showers,330,2013-03-25 14:00:00
11:27 AM,33.8,28.4,81,29.67,12.0,NNW,12.7,20.7,N/A,,Overcast,340,2013-03-25 14:27:00
12:00 PM,32.0,28.4,87,29.67,15.0,NNW,11.5,20.7,N/A,,Overcast,330,2013-03-25 15:00:00
12:36 PM,32.0,28.4,87,29.65,5.0,NW,11.5,20.7,N/A,Snow,Light Snow Showers,320,2013-03-25 15:36:00
1:00 PM,32.0,28.4,87,29.65,15.0,NNW,13.8,20.7,N/A,Snow,Light Snow Showers,330,2013-03-25 16:00:00
1:47 PM,32.0,28.4,87,29.65,2.0,NW,13.8,23.0,N/A,Snow,Light Snow Showers,320,2013-03-25 16:47:00
2:00 PM,30.2,28.4,93,29.64,2.0,NNW,13.8,20.7,N/A,Snow,Light Snow Showers,330,2013-03-25 17:00:00
2:35 PM,32.0,30.2,93,29.64,4.0,NNW,12.7,20.7,N/A,Snow,Light Snow Showers,330,2013-03-25 17:35:00
3:00 PM,31,29,92,29.64,6,NNW,11.5,,,Snow,Light Snow Showers,330,2013-03-25 18:00:00
3:00 PM,30.2,30.2,100,29.64,6.0,NW,10.4,23.0,N/A,Snow,Light Snow Showers,320,2013-03-25 18:00:00
4:00 PM,30.2,30.2,100,29.64,4.0,NNW,15.0,-,N/A,Snow,Light Snow Showers,340,2013-03-25 19:00:00
5:00 PM,30.2,30.2,100,29.63,8.0,North,12.7,20.7,N/A,Snow,Light Snow Showers,360,2013-03-25 20:00:00
6:00 PM,30.2,28.4,93,29.64,10.0,NNE,18.4,-,N/A,,Overcast,20,2013-03-25 21:00:00
7:00 PM,30.2,28.4,93,29.65,15.0,NNE,16.1,-,N/A,Snow,Light Snow Showers,30,2013-03-25 22:00:00
8:00 PM,30.2,28.4,93,29.67,12.0,NE,13.8,-,N/A,Snow,Light Snow Showers,40,2013-03-25 23:00:00
9:00 PM,29,28,93,29.66,12,NE,10.4,,,Snow,Snow Grains,40,2013-03-26 00:00:00
9:00 PM,30.2,28.4,93,29.66,12.0,NE,10.4,-,N/A,Snow,Light Snow Grains,40,2013-03-26 00:00:00
10:00 PM,30.2,28.4,93,29.66,6.0,NE,13.8,-,N/A,Snow,Light Snow Grains,40,2013-03-26 01:00:00
10:30 PM,30.2,26.6,86,29.65,15.0,NE,15.0,-,N/A,,Overcast,50,2013-03-26 01:30:00
11:00 PM,30.2,26.6,86,29.64,15.0,NE,16.1,-,N/A,,Overcast,40,2013-03-26 02:00:00